Regional Weather Roundup
Issued by NWS

Home | Current Version | Previous Version | Graphics & Text | Print | Product List | Glossary On
Versions: 1 2 3 4 5 6 7 8 9 10 11 12 13 14 15 16 17 18 19 20 21 22 23 24 25 26 27 28
000
ASUS45 KPSR 232110
RWRAZ

ARIZONA HOURLY REGIONAL WEATHER ROUNDUP
NATIONAL WEATHER SERVICE PHOENIX AZ
200 PM MST WED MAY 23 2018

NOTE: FAIR INDICATES FEW OR NO CLOUDS BELOW 12,000 FEET WITH NO
SIGNIFICANT WEATHER AND/OR OBSTRUCTIONS TO VISIBILITY.

AZZ001>003-036-232200-
NORTHWEST ARIZONA

CITY           SKY/WX    TMP DP  RH WIND       PRES   REMARKS
BULLHEAD CITY  SUNNY     91  34  13 SW12      29.81F
KINGMAN        SUNNY     83  26  12 VRB7      29.96F
$$

AZZ004>008-015-016-018-232200-
NORTH CENTRAL ARIZONA

CITY           SKY/WX    TMP DP  RH WIND       PRES   REMARKS
GRAND CANYON   SUNNY     73  19  13 SW17G23   30.11F
WILLIAMS       SUNNY     70  21  16 SE10      30.10F
PRESCOTT       SUNNY     76  24  14 E10G20    30.03F
FLAGSTAFF      SUNNY     69  21  16 S13G21    30.14F
PAYSON         SUNNY     77  21  12 SW10G16   30.05F
PAGE           SUNNY     84  21  10 E3        29.96F
$$

AZZ009>014-017-232200-
NORTHEAST ARIZONA

CITY           SKY/WX    TMP DP  RH WIND       PRES   REMARKS
WINSLOW        SUNNY     85  20   9 S15G21    29.98F
SAINT JOHNS    SUNNY     83  17   8 W12G22    30.01F
WINDOW ROCK    SUNNY     77  10   7 S13G23    30.10F
SHOW LOW       SUNNY     75  18  11 SW17G30   30.10F
$$

AZZ540-542>544-546-548-232200-
GREATER PHOENIX AREA

CITY           SKY/WX    TMP DP  RH WIND       PRES   REMARKS
PHOENIX        SUNNY     92  29  10 SE8       29.84F
BUCKEYE        SUNNY     86  32  14 SW7       29.87F
GLENDALE       SUNNY     90  32  12 SW7       29.86F
DEER VALLEY    SUNNY     90  27  10 SW14G31   29.86F
SCOTTSDALE     SUNNY     90  33  13 MISG      29.88F
MESA-FALCON    SUNNY     91  30  11 S12G21    29.86F
MESA-GATEWAY   SUNNY     91  30  11 SW9G20    29.87F
CHANDLER       SUNNY     91  28  10 S14       29.85F
$$

AZZ539-553-232200-
SOUTHWEST MARICOPA COUNTY AND PINAL COUNTY

CITY           SKY/WX    TMP DP  RH WIND       PRES   REMARKS
CASA GRANDE    SUNNY     90  30  11 SW6         N/A
GILA BEND      FAIR      90  30  12 NE10      29.83F
$$

AZZ503-504-507>509-232200-
SOUTHEAST ARIZONA

CITY           SKY/WX    TMP DP  RH WIND       PRES   REMARKS
TUCSON         SUNNY     91  20   7 SW14G21   29.91F
DAVIS-MONTHAN  SUNNY     93  23   8 SW10      29.90F
NOGALES        SUNNY     87  26  11 S13G22    29.99F
SIERRA VISTA   SUNNY     86  24  10 SW18G25   30.03
DOUGLAS        SUNNY     88  19   8 S14G24    30.00F
SAFFORD        SUNNY     91  23   8 S8        29.90F
$$

AZZ532-232200-
SOUTHWEST ARIZONA

CITY           SKY/WX    TMP DP  RH WIND       PRES   REMARKS
YUMA           SUNNY     89  42  19 SW7       29.83F
$$

CAZ041-043-047-048-061-525>527-560>570-232200-
SOUTHERN CALIFORNIA

CITY           SKY/WX    TMP DP  RH WIND       PRES   REMARKS
DOWNTOWN L.A.  CLOUDY    66  55  67 CALM      29.97S
L.A. AIRPORT   PTSUNNY   65  54  67 W13       29.98S
SAN DIEGO      PTSUNNY   65  55  70 NW12      29.99S
BURBANK        CLOUDY    65  54  67 SE5       29.96F
ONTARIO        PTSUNNY   69  52  54 VRB7      29.96F
RIVERSIDE      MOSUNNY   69  52  54 SW9       29.95F
PALM SPRINGS   SUNNY     88  47  24 CALM      29.85F
EL CENTRO NAS  MOSUNNY   89  47  23 NE5       29.83F
IMPERIAL       SUNNY     89  48  24 MISG      29.81F
BLYTHE         SUNNY     89  37  16 VRB3      29.83F
NEEDLES        SUNNY     94  26   9 E7        29.82F
$$

NVZ020-UTZ003-232200-
SOUTHERN NEVADA-UTAH

CITY           SKY/WX    TMP DP  RH WIND       PRES   REMARKS
LAS VEGAS      MOSUNNY   89  31  12 VRB3      29.85F
SALT LAKE CITY PTSUNNY   63  52  67 NE9       29.96F
$$

NMZ009-TXZ055-232200-
NEW MEXICO-WEST TEXAS

CITY           SKY/WX    TMP DP  RH WIND       PRES   REMARKS
ALBUQUERQUE    MOSUNNY   84  23  10 SW23G30   30.04F
EL PASO        MOSUNNY   88  23   9 E5        29.98F
$$


........................KEY........................
SKY/WX - SKY CONDITION/WEATHER
TMP    - TEMPERATURE IN FAHRENHEIT
DP     - DEW POINT IN FAHRENHEIT
RH     - RELATIVE HUMIDITY IN PERCENT
WIND   - DIRECTION AND SPEED IN MILES PER HOUR (MPH)
VRB    - VARIABLE WIND DIRECTION
PRES   - MEAN SEA LEVEL PRESSURE IN INCHES OF MERCURY
         F - FALLING PRESSURE   R - RISING PRESSURE
         S - STEADY PRESSURE
VSB    - VISIBILITY IN MILES
HX     - HEAT INDEX IN FAHRENHEIT
WCI    - WIND CHILL INDEX IN FAHRENHEIT
TC     - TEMPERATURE IN CELSIUS WHICH IS ALSO KNOWN AS
         TEMPERATURE IN CENTIGRADE
AFB    - AIR FORCE BASE
         LUKE AFB IS LUKE AIR FORCE BASE
         DAVIS-MONTHAN IS DAVIS-MONTHAN AIR FORCE BASE
NAS    - NAVAL AIR STATION
         EL CENTRO NAS IS EL CENTRO NAVAL AIR STATION
N/A    - NOT AVAILABLE





USA.gov is the U.S. government's official web portal to all federal, state and local government web resources and services.